Location: Byhalia Creek
(34.8270°N, 89.8040°W)
Time: 20:09:46
(UTC+00:00)

Meteor 1-27 Rocket - Pass Details

Date: 22 April 2026
Orbit: 829 x 908 km, 81.3° (Epoch: 21 May)

Event Time Altitude Azimuth Distance (km) Brightness Sun altitude
Exits shadow 08:53:09 77° 216° (SW) 931 3.7 -27.2°
Maximum altitude 08:53:34 84° 278° (W) 916 3.7 -27.1°
Drops below altitude 10° 08:59:31 10° 7° (N) 2,595 6.8 -26.2°
Sets 09:01:59 0° 8° (N) 3,536 7.6 -25.8°
